Location: Chircca
(13.7944°S, 72.0608°W)
Time: 06:31:07
(UTC+00:00)

GPS 2-15 Rocket1 - Pass Details

Date: 14 July 2020
Orbit: 624 x 675 km, 19.8° (Epoch: 14 August)

Event Time Altitude Azimuth Distance (km) Brightness Sun altitude
Exits shadow 10:13:38 22° 251° (WSW) 1,392 4.2 -14.3°
Maximum altitude 10:16:41 80° 166° (SSE) 654 3.1 -13.6°
Drops below altitude 10° 10:21:25 10° 79° (ENE) 2,010 7.2 -12.5°
Sets 10:23:45 0° 77° (ENE) 2,909 8.6 -12.0°
